Volver al catálogo

STARLINK-31108

ActivoComunicacionesVLEO
NORAD 58738·PAYLOAD·🇺🇸 United States

Lanzado Jan 7, 2024 desde Cape Canaveral Space Force Station

Loading…

Próximos Pases (próximas 24 horas)

TLE

ActualizadoSource: CelesTrak SupGP

Época: Sep 14, 2026, 22:15 UTC

1 58738C 24005L   26257.92756944  .00020721  00000+0  75056-3 0  2574
2 58738  43.0019 230.8875 0001303 257.2563 217.8509 15.27566415    15

Sigue STARLINK-31108 en tiempo real con AllMySat

Download on the App Store